Tracking 21970 objects as of 25-Nov-2020
HD Live streaming from Space Station
objects crossing your sky now

IRIDIUM 33 DEB

Track IRIDIUM 33 DEB now!
10-day predictions


NORAD ID: 35052
Int'l Code: 1997-051NY
Perigee: 771.5 km
Apogee: 788.4 km
Inclination: 86.3 °
Period: 100.3 minutes
Semi major axis: 7150 km
RCS: 0.0011 m2 (small)
Launch date: September 14, 1997
Source: United States (US)
Launch site: TYURATAM MISSILE AND SPACE COMPLEX (TTMTR)

Note: This is SATELLITE DEBRIS
aabbcc
Your satellite tracking list
Your tracking list is empty




NASA's NSSDC Master Catalog

Two Line Element Set (TLE):
1 35052U 97051NY  20329.66894057  .00000174  00000-0  53543-4 0  9994
2 35052  86.3313  88.2681 0011759   6.4346 353.6999 14.35680708610407
Source of the keplerian elements: AFSPC